Year,Month,Day,Hour,Minute,Value (Times are PST for temperature in C)
2009,09,28,00,00,11.30
2009,09,28,00,01,11.30
2009,09,28,00,02,11.30
2009,09,28,00,03,11.30
2009,09,28,00,04,11.30
2009,09,28,00,05,11.30
2009,09,28,00,06,11.20
2009,09,28,00,07,11.20
2009,09,28,00,08,11.20
2009,09,28,00,09,11.20
2009,09,28,00,10,11.20
2009,09,28,00,11,11.20
2009,09,28,00,12,11.20
2009,09,28,00,13,11.20
2009,09,28,00,14,11.20
2009,09,28,00,15,11.20
2009,09,28,00,16,11.10
2009,09,28,00,17,11.10
2009,09,28,00,18,11.10
2009,09,28,00,19,11.10
2009,09,28,00,20,11.10
2009,09,28,00,21,11.10
2009,09,28,00,22,11.10
2009,09,28,00,23,11.10
2009,09,28,00,24,11.10
2009,09,28,00,25,11.00
2009,09,28,00,26,10.90
2009,09,28,00,27,10.90
2009,09,28,00,28,10.90
2009,09,28,00,29,10.90
2009,09,28,00,30,10.90
2009,09,28,00,31,10.90
2009,09,28,00,32,10.90
2009,09,28,00,33,10.90
2009,09,28,00,34,10.90
2009,09,28,00,35,10.90
2009,09,28,00,36,10.90
2009,09,28,00,37,10.90
2009,09,28,00,38,10.90
2009,09,28,00,39,10.80
2009,09,28,00,40,10.80
2009,09,28,00,41,10.80
2009,09,28,00,42,10.80
2009,09,28,00,43,10.80
2009,09,28,00,44,10.80
2009,09,28,00,45,10.80
2009,09,28,00,46,10.70
2009,09,28,00,47,10.70
2009,09,28,00,48,10.70
2009,09,28,00,49,10.70
2009,09,28,00,50,10.60
2009,09,28,00,51,10.60
2009,09,28,00,52,10.60
2009,09,28,00,53,10.60
2009,09,28,00,54,10.60
2009,09,28,00,55,10.60
2009,09,28,00,56,10.60
2009,09,28,00,57,10.60
2009,09,28,00,58,10.60
2009,09,28,00,59,10.60
2009,09,28,01,00,10.40
2009,09,28,01,01,10.40
2009,09,28,01,02,10.40
2009,09,28,01,03,10.40
2009,09,28,01,04,10.40
2009,09,28,01,05,10.40
2009,09,28,01,06,10.40
2009,09,28,01,07,10.40
2009,09,28,01,08,10.40
2009,09,28,01,09,10.40
2009,09,28,01,10,10.40
2009,09,28,01,11,10.40
2009,09,28,01,12,10.40
2009,09,28,01,13,10.50
2009,09,28,01,14,10.60
2009,09,28,01,15,10.60
2009,09,28,01,16,10.60
2009,09,28,01,17,10.60
2009,09,28,01,18,10.60
2009,09,28,01,19,10.60
2009,09,28,01,20,10.60
2009,09,28,01,21,10.60
2009,09,28,01,22,10.60
2009,09,28,01,23,10.60
2009,09,28,01,24,10.60
2009,09,28,01,25,10.60
2009,09,28,01,26,10.60
2009,09,28,01,27,10.60
2009,09,28,01,28,10.60
2009,09,28,01,29,10.60
2009,09,28,01,30,10.60
2009,09,28,01,31,10.60
2009,09,28,01,32,10.60
2009,09,28,01,33,10.60
2009,09,28,01,34,10.60
2009,09,28,01,35,10.70
2009,09,28,01,36,10.70
2009,09,28,01,37,10.70
2009,09,28,01,38,10.70
2009,09,28,01,39,10.70
2009,09,28,01,40,10.60
2009,09,28,01,41,10.60
2009,09,28,01,42,10.60
2009,09,28,01,43,10.60
2009,09,28,01,44,10.60
2009,09,28,01,45,10.60
2009,09,28,01,46,10.60
2009,09,28,01,47,10.60
2009,09,28,01,48,10.60
2009,09,28,01,49,10.60
2009,09,28,01,50,10.60
2009,09,28,01,51,10.60
2009,09,28,01,52,10.60
2009,09,28,01,53,10.60
2009,09,28,01,54,10.60
2009,09,28,01,55,10.60
2009,09,28,01,56,10.60
2009,09,28,01,57,10.60
2009,09,28,01,58,10.60
2009,09,28,01,59,10.60
2009,09,28,02,00,10.60
2009,09,28,02,01,10.60
2009,09,28,02,02,10.60
2009,09,28,02,03,10.60
2009,09,28,02,04,10.60
2009,09,28,02,05,10.60
2009,09,28,02,06,10.60
2009,09,28,02,07,10.60
2009,09,28,02,08,10.50
2009,09,28,02,09,10.40
2009,09,28,02,10,10.40
2009,09,28,02,11,10.40
2009,09,28,02,12,10.40
2009,09,28,02,13,10.40
2009,09,28,02,14,10.30
2009,09,28,02,15,10.30
2009,09,28,02,16,10.20
2009,09,28,02,17,10.20
2009,09,28,02,18,10.20
2009,09,28,02,19,10.10
2009,09,28,02,20,10.10
2009,09,28,02,21,10.10
2009,09,28,02,22,10.10
2009,09,28,02,23,10.00
2009,09,28,02,24,9.90
2009,09,28,02,25,9.90
2009,09,28,02,26,9.90
2009,09,28,02,27,9.90
2009,09,28,02,28,9.80
2009,09,28,02,29,9.80
2009,09,28,02,30,9.80
2009,09,28,02,31,9.70
2009,09,28,02,32,9.70
2009,09,28,02,33,9.70
2009,09,28,02,34,9.70
2009,09,28,02,35,9.70
2009,09,28,02,36,9.70
2009,09,28,02,37,9.70
2009,09,28,02,38,9.70
2009,09,28,02,39,9.70
2009,09,28,02,40,9.70
2009,09,28,02,41,9.70
2009,09,28,02,42,9.70
2009,09,28,02,43,9.60
2009,09,28,02,44,9.60
2009,09,28,02,45,9.60
2009,09,28,02,46,9.60
2009,09,28,02,47,9.50
2009,09,28,02,48,9.50
2009,09,28,02,49,9.50
2009,09,28,02,50,9.50
2009,09,28,02,51,9.50
2009,09,28,02,52,9.50
2009,09,28,02,53,9.40
2009,09,28,02,54,9.40
2009,09,28,02,55,9.40
2009,09,28,02,56,9.40
2009,09,28,02,57,9.50
2009,09,28,02,58,9.50
2009,09,28,02,59,9.50
2009,09,28,03,00,9.50
2009,09,28,03,01,9.50
2009,09,28,03,02,9.50
2009,09,28,03,03,9.50
2009,09,28,03,04,9.50
2009,09,28,03,05,9.50
2009,09,28,03,06,9.50
2009,09,28,03,07,9.50
2009,09,28,03,08,9.60
2009,09,28,03,09,9.60
2009,09,28,03,10,9.60
2009,09,28,03,11,9.60
2009,09,28,03,12,9.60
2009,09,28,03,13,9.60
2009,09,28,03,14,9.60
2009,09,28,03,15,9.70
2009,09,28,03,16,9.70
2009,09,28,03,17,9.70
2009,09,28,03,18,9.70
2009,09,28,03,19,9.70
2009,09,28,03,20,9.70
2009,09,28,03,21,9.70
2009,09,28,03,22,9.70
2009,09,28,03,23,9.60
2009,09,28,03,24,9.60
2009,09,28,03,25,9.60
2009,09,28,03,26,9.60
2009,09,28,03,27,9.50
2009,09,28,03,28,9.50
2009,09,28,03,29,9.50
2009,09,28,03,30,9.50
2009,09,28,03,31,9.50
2009,09,28,03,32,9.50
2009,09,28,03,33,9.60
2009,09,28,03,34,9.60
2009,09,28,03,35,9.60
2009,09,28,03,36,9.60
2009,09,28,03,37,9.60
2009,09,28,03,38,9.60
2009,09,28,03,39,9.70
2009,09,28,03,40,9.70
2009,09,28,03,41,9.70
2009,09,28,03,42,9.70
2009,09,28,03,43,9.70
2009,09,28,03,44,9.70
2009,09,28,03,45,9.70
2009,09,28,03,46,9.70
2009,09,28,03,47,9.70
2009,09,28,03,48,9.70
2009,09,28,03,49,9.70
2009,09,28,03,50,9.70
2009,09,28,03,51,9.70
2009,09,28,03,52,9.70
2009,09,28,03,53,9.70
2009,09,28,03,54,9.70
2009,09,28,03,55,9.70
2009,09,28,03,56,9.70
2009,09,28,03,57,9.70
2009,09,28,03,58,9.70
2009,09,28,03,59,9.70
2009,09,28,04,00,9.70
2009,09,28,04,01,9.70
2009,09,28,04,02,9.70
2009,09,28,04,03,9.70
2009,09,28,04,04,9.70
2009,09,28,04,05,9.70
2009,09,28,04,06,9.70
2009,09,28,04,07,9.70
2009,09,28,04,08,9.70
2009,09,28,04,09,9.70
2009,09,28,04,10,9.70
2009,09,28,04,11,9.70
2009,09,28,04,12,9.80
2009,09,28,04,13,9.80
2009,09,28,04,14,9.80
2009,09,28,04,15,9.80
2009,09,28,04,16,9.80
2009,09,28,04,17,9.80
2009,09,28,04,18,9.80
2009,09,28,04,19,9.70
2009,09,28,04,20,9.70
2009,09,28,04,21,9.70
2009,09,28,04,22,9.70
2009,09,28,04,23,9.60
2009,09,28,04,24,9.60
2009,09,28,04,25,9.50
2009,09,28,04,26,9.50
2009,09,28,04,27,9.40
2009,09,28,04,28,9.40
2009,09,28,04,29,9.40
2009,09,28,04,30,9.30
2009,09,28,04,31,9.30
2009,09,28,04,32,9.20
2009,09,28,04,33,9.20
2009,09,28,04,34,9.20
2009,09,28,04,35,9.20
2009,09,28,04,36,9.20
2009,09,28,04,37,9.10
2009,09,28,04,38,9.10
2009,09,28,04,39,9.10
2009,09,28,04,40,9.00
2009,09,28,04,41,9.00
2009,09,28,04,42,8.90
2009,09,28,04,43,8.90
2009,09,28,04,44,8.90
2009,09,28,04,45,8.80
2009,09,28,04,46,8.80
2009,09,28,04,47,8.80
2009,09,28,04,48,8.80
2009,09,28,04,49,8.80
2009,09,28,04,50,8.70
2009,09,28,04,51,8.80
2009,09,28,04,52,8.80
2009,09,28,04,53,8.80
2009,09,28,04,54,8.80
2009,09,28,04,55,8.90
2009,09,28,04,56,8.90
2009,09,28,04,57,8.90
2009,09,28,04,58,9.00
2009,09,28,04,59,9.00
2009,09,28,05,00,9.00
2009,09,28,05,01,9.10
2009,09,28,05,02,9.20
2009,09,28,05,03,9.20
2009,09,28,05,04,9.30
2009,09,28,05,05,9.40
2009,09,28,05,06,9.40
2009,09,28,05,07,9.50
2009,09,28,05,08,9.50
2009,09,28,05,09,9.70
2009,09,28,05,10,9.80
2009,09,28,05,11,9.90
2009,09,28,05,12,10.00
2009,09,28,05,13,10.10
2009,09,28,05,14,10.20
2009,09,28,05,15,10.30
2009,09,28,05,16,10.40
2009,09,28,05,17,10.50
2009,09,28,05,18,10.60
2009,09,28,05,19,10.60
2009,09,28,05,20,10.60
2009,09,28,05,21,10.60
2009,09,28,05,22,10.60
2009,09,28,05,23,10.60
2009,09,28,05,24,10.60
2009,09,28,05,25,10.60
2009,09,28,05,26,10.50
2009,09,28,05,27,10.40
2009,09,28,05,28,10.40
2009,09,28,05,29,10.40
2009,09,28,05,30,10.40
2009,09,28,05,31,10.40
2009,09,28,05,32,10.30
2009,09,28,05,33,10.30
2009,09,28,05,34,10.30
2009,09,28,05,35,10.20
2009,09,28,05,36,10.20
2009,09,28,05,37,10.20
2009,09,28,05,38,10.20
2009,09,28,05,39,10.10
2009,09,28,05,40,10.10
2009,09,28,05,41,10.10
2009,09,28,05,42,10.10
2009,09,28,05,43,10.00
2009,09,28,05,44,9.90
2009,09,28,05,45,9.90
2009,09,28,05,46,9.90
2009,09,28,05,47,9.90
2009,09,28,05,48,9.80
2009,09,28,05,49,9.70
2009,09,28,05,50,9.70
2009,09,28,05,51,9.60
2009,09,28,05,52,9.50
2009,09,28,05,53,9.40
2009,09,28,05,54,9.30
2009,09,28,05,55,9.20
2009,09,28,05,56,9.20
2009,09,28,05,57,9.10
2009,09,28,05,58,9.00
2009,09,28,05,59,8.90
2009,09,28,06,00,8.90
2009,09,28,06,01,8.80
2009,09,28,06,02,8.80
2009,09,28,06,03,8.70
2009,09,28,06,04,8.70
2009,09,28,06,05,8.70
2009,09,28,06,06,8.70
2009,09,28,06,07,8.70
2009,09,28,06,08,8.70
2009,09,28,06,09,8.70
2009,09,28,06,10,8.70
2009,09,28,06,11,8.70
2009,09,28,06,12,8.70
2009,09,28,06,13,8.70
2009,09,28,06,14,8.70
2009,09,28,06,15,8.70
2009,09,28,06,16,8.70
2009,09,28,06,17,8.70
2009,09,28,06,18,8.70
2009,09,28,06,19,8.70
2009,09,28,06,20,8.70
2009,09,28,06,21,8.80
2009,09,28,06,22,8.80
2009,09,28,06,23,8.80
2009,09,28,06,24,8.70
2009,09,28,06,25,8.70
2009,09,28,06,26,8.70
2009,09,28,06,27,8.70
2009,09,28,06,28,8.70
2009,09,28,06,29,8.70
2009,09,28,06,30,8.70
2009,09,28,06,31,8.70
2009,09,28,06,32,8.70
2009,09,28,06,33,8.70
2009,09,28,06,34,8.70
2009,09,28,06,35,8.70
2009,09,28,06,36,8.70
2009,09,28,06,37,8.70
2009,09,28,06,38,8.80
2009,09,28,06,39,8.80
2009,09,28,06,40,8.80
2009,09,28,06,41,8.80
2009,09,28,06,42,8.80
2009,09,28,06,43,8.80
2009,09,28,06,44,8.70
2009,09,28,06,45,8.70
2009,09,28,06,46,8.70
2009,09,28,06,47,8.70
2009,09,28,06,48,8.70
2009,09,28,06,49,8.70
2009,09,28,06,50,8.70
2009,09,28,06,51,8.70
2009,09,28,06,52,8.60
2009,09,28,06,53,8.70
2009,09,28,06,54,8.70
2009,09,28,06,55,8.80
2009,09,28,06,56,8.90
2009,09,28,06,57,8.90
2009,09,28,06,58,9.00
2009,09,28,06,59,9.00
2009,09,28,07,00,9.10
2009,09,28,07,01,9.10
2009,09,28,07,02,9.20
2009,09,28,07,03,9.20
2009,09,28,07,04,9.20
2009,09,28,07,05,9.20
2009,09,28,07,06,9.20
2009,09,28,07,07,9.30
2009,09,28,07,08,9.40
2009,09,28,07,09,9.40
2009,09,28,07,10,9.50
2009,09,28,07,11,9.60
2009,09,28,07,12,9.60
2009,09,28,07,13,9.60
2009,09,28,07,14,9.60
2009,09,28,07,15,9.60
2009,09,28,07,16,9.60
2009,09,28,07,17,9.50
2009,09,28,07,18,9.50
2009,09,28,07,19,9.50
2009,09,28,07,20,9.50
2009,09,28,07,21,9.50
2009,09,28,07,22,9.50
2009,09,28,07,23,9.50
2009,09,28,07,24,9.50
2009,09,28,07,25,9.60
2009,09,28,07,26,9.60
2009,09,28,07,27,9.60
2009,09,28,07,28,9.60
2009,09,28,07,29,9.60
2009,09,28,07,30,9.60
2009,09,28,07,31,9.60
2009,09,28,07,32,9.60
2009,09,28,07,33,9.70
2009,09,28,07,34,9.70
2009,09,28,07,35,9.70
2009,09,28,07,36,9.70
2009,09,28,07,37,9.70
2009,09,28,07,38,9.70
2009,09,28,07,39,9.70
2009,09,28,07,40,9.70
2009,09,28,07,41,9.70
2009,09,28,07,42,9.80
2009,09,28,07,43,9.80
2009,09,28,07,44,9.90
2009,09,28,07,45,9.90
2009,09,28,07,46,9.90
2009,09,28,07,47,9.90
2009,09,28,07,48,9.90
2009,09,28,07,49,10.00
2009,09,28,07,50,10.10
2009,09,28,07,51,10.10
2009,09,28,07,52,10.10
2009,09,28,07,53,10.10
2009,09,28,07,54,10.10
2009,09,28,07,55,10.10
2009,09,28,07,56,10.10
2009,09,28,07,57,10.10
2009,09,28,07,58,9.90
2009,09,28,07,59,9.90
2009,09,28,08,00,9.90
2009,09,28,08,01,9.90
2009,09,28,08,02,9.90
2009,09,28,08,03,9.90
2009,09,28,08,04,9.90
2009,09,28,08,05,9.90
2009,09,28,08,06,9.90
2009,09,28,08,07,9.90
2009,09,28,08,08,9.90
2009,09,28,08,09,9.90
2009,09,28,08,10,9.80
2009,09,28,08,11,9.90
2009,09,28,08,12,10.00
2009,09,28,08,13,10.10
2009,09,28,08,14,10.10
2009,09,28,08,15,10.10
2009,09,28,08,16,10.10
2009,09,28,08,17,10.10
2009,09,28,08,18,10.10
2009,09,28,08,19,10.10
2009,09,28,08,20,10.10
2009,09,28,08,21,10.10
2009,09,28,08,22,10.10
2009,09,28,08,23,10.10
2009,09,28,08,24,10.10
2009,09,28,08,25,10.10
2009,09,28,08,26,10.10
2009,09,28,08,27,10.10
2009,09,28,08,28,10.10
2009,09,28,08,29,10.10
2009,09,28,08,30,10.10
2009,09,28,08,31,10.10
2009,09,28,08,32,10.10
2009,09,28,08,33,10.20
2009,09,28,08,34,10.30
2009,09,28,08,35,10.30
2009,09,28,08,36,10.40
2009,09,28,08,37,10.40
2009,09,28,08,38,10.30
2009,09,28,08,39,10.30
2009,09,28,08,40,10.30
2009,09,28,08,41,10.40
2009,09,28,08,42,10.40
2009,09,28,08,43,10.40
2009,09,28,08,44,10.40
2009,09,28,08,45,10.40
2009,09,28,08,46,10.40
2009,09,28,08,47,10.40
2009,09,28,08,48,10.40
2009,09,28,08,49,10.40
2009,09,28,08,50,10.60
2009,09,28,08,51,10.60
2009,09,28,08,52,10.60
2009,09,28,08,53,10.60
2009,09,28,08,54,10.60
2009,09,28,08,55,10.70
2009,09,28,08,56,10.70
2009,09,28,08,57,10.60
2009,09,28,08,58,10.50
2009,09,28,08,59,10.40
2009,09,28,09,00,10.40
2009,09,28,09,01,10.40
2009,09,28,09,02,10.40
2009,09,28,09,03,10.60
2009,09,28,09,04,10.50
2009,09,28,09,05,10.40
2009,09,28,09,06,10.40
2009,09,28,09,07,10.40
2009,09,28,09,08,10.30
2009,09,28,09,09,10.30
2009,09,28,09,10,10.30
2009,09,28,09,11,10.30
2009,09,28,09,12,10.40
2009,09,28,09,13,10.40
2009,09,28,09,14,10.50
2009,09,28,09,15,10.60
2009,09,28,09,16,10.60
2009,09,28,09,17,10.70
2009,09,28,09,18,10.80
2009,09,28,09,19,10.90
2009,09,28,09,20,10.90
2009,09,28,09,21,10.90
2009,09,28,09,22,11.00
2009,09,28,09,23,11.10
2009,09,28,09,24,11.10
2009,09,28,09,25,11.10
2009,09,28,09,26,11.10
2009,09,28,09,27,11.10
2009,09,28,09,28,11.10
2009,09,28,09,29,11.10
2009,09,28,09,30,11.10
2009,09,28,09,31,11.10
2009,09,28,09,32,11.20
2009,09,28,09,33,11.20
2009,09,28,09,34,11.20
2009,09,28,09,35,11.20
2009,09,28,09,36,11.20
2009,09,28,09,37,11.20
2009,09,28,09,38,11.20
2009,09,28,09,39,11.30
2009,09,28,09,40,11.30
2009,09,28,09,41,11.40
2009,09,28,09,42,11.30
2009,09,28,09,43,11.40
2009,09,28,09,44,11.40
2009,09,28,09,45,11.40
2009,09,28,09,46,11.50
2009,09,28,09,47,11.60
2009,09,28,09,48,11.60
2009,09,28,09,49,11.50
2009,09,28,09,50,11.40
2009,09,28,09,51,11.40
2009,09,28,09,52,11.40
2009,09,28,09,53,11.40
2009,09,28,09,54,11.40
2009,09,28,09,55,11.40
2009,09,28,09,56,11.40
2009,09,28,09,57,11.40
2009,09,28,09,58,11.40
2009,09,28,09,59,11.40
2009,09,28,10,00,11.50
2009,09,28,10,01,11.60
2009,09,28,10,02,11.60
2009,09,28,10,03,11.70
2009,09,28,10,04,11.70
2009,09,28,10,05,11.80
2009,09,28,10,06,11.80
2009,09,28,10,07,11.80
2009,09,28,10,08,11.80
2009,09,28,10,09,11.80
2009,09,28,10,10,11.90
2009,09,28,10,11,11.90
2009,09,28,10,12,12.00
2009,09,28,10,13,12.10
2009,09,28,10,14,12.10
2009,09,28,10,15,12.20
2009,09,28,10,16,12.20
2009,09,28,10,17,12.20
2009,09,28,10,18,12.30
2009,09,28,10,19,12.30
2009,09,28,10,20,12.40
2009,09,28,10,21,12.40
2009,09,28,10,22,12.50
2009,09,28,10,23,12.60
2009,09,28,10,24,12.60
2009,09,28,10,25,12.70
2009,09,28,10,26,12.80
2009,09,28,10,27,12.80
2009,09,28,10,28,12.90
2009,09,28,10,29,12.90
2009,09,28,10,30,13.00
2009,09,28,10,31,13.10
2009,09,28,10,32,13.10
2009,09,28,10,33,13.20
2009,09,28,10,34,13.30
2009,09,28,10,35,13.40
2009,09,28,10,36,13.50
2009,09,28,10,37,13.60
2009,09,28,10,38,13.70
2009,09,28,10,39,13.80
2009,09,28,10,40,13.90
2009,09,28,10,41,14.00
2009,09,28,10,42,14.10
2009,09,28,10,43,14.20
2009,09,28,10,44,14.30
2009,09,28,10,45,14.40
2009,09,28,10,46,14.40
2009,09,28,10,47,14.50
2009,09,28,10,48,14.50
2009,09,28,10,49,14.50
2009,09,28,10,50,14.50
2009,09,28,10,51,14.50
2009,09,28,10,52,14.40
2009,09,28,10,53,14.40
2009,09,28,10,54,14.30
2009,09,28,10,55,14.30
2009,09,28,10,56,14.30
2009,09,28,10,57,14.30
2009,09,28,10,58,14.40
2009,09,28,10,59,14.40
2009,09,28,11,00,14.40
2009,09,28,11,01,14.40
2009,09,28,11,02,14.40
2009,09,28,11,03,14.40
2009,09,28,11,04,14.40
2009,09,28,11,05,14.40
2009,09,28,11,06,14.40
2009,09,28,11,07,14.40
2009,09,28,11,08,14.40
2009,09,28,11,09,14.40
2009,09,28,11,10,14.40
2009,09,28,11,11,14.40
2009,09,28,11,12,14.40
2009,09,28,11,13,14.40
2009,09,28,11,14,14.40
2009,09,28,11,15,14.40
2009,09,28,11,16,14.40
2009,09,28,11,17,14.40
2009,09,28,11,18,14.40
2009,09,28,11,19,14.40
2009,09,28,11,20,14.40
2009,09,28,11,21,14.40
2009,09,28,11,22,14.40
2009,09,28,11,23,14.40
2009,09,28,11,24,14.40
2009,09,28,11,25,14.40
2009,09,28,11,26,14.40
2009,09,28,11,27,14.40
2009,09,28,11,28,14.40
2009,09,28,11,29,14.30
2009,09,28,11,30,14.30
2009,09,28,11,31,14.30
2009,09,28,11,32,14.30
2009,09,28,11,33,14.30
2009,09,28,11,34,14.30
2009,09,28,11,35,14.30
2009,09,28,11,36,14.30
2009,09,28,11,37,14.20
2009,09,28,11,38,14.20
2009,09,28,11,39,14.20
2009,09,28,11,40,14.20
2009,09,28,11,41,14.20
2009,09,28,11,42,14.20
2009,09,28,11,43,14.20
2009,09,28,11,44,14.20
2009,09,28,11,45,14.20
2009,09,28,11,46,14.20
2009,09,28,11,47,14.20
2009,09,28,11,48,14.20
2009,09,28,11,49,14.20
2009,09,28,11,50,14.20
2009,09,28,11,51,14.20
2009,09,28,11,52,14.20
2009,09,28,11,53,14.30
2009,09,28,11,54,14.30
2009,09,28,11,55,14.30
2009,09,28,11,56,14.30
2009,09,28,11,57,14.30
2009,09,28,11,58,14.40
2009,09,28,11,59,14.30
2009,09,28,12,00,14.30
2009,09,28,12,01,14.30
2009,09,28,12,02,14.30
2009,09,28,12,03,14.30
2009,09,28,12,04,14.40
2009,09,28,12,05,14.40
2009,09,28,12,06,14.40
2009,09,28,12,07,14.40
2009,09,28,12,08,14.40
2009,09,28,12,09,14.40
2009,09,28,12,10,14.40
2009,09,28,12,11,14.50
2009,09,28,12,12,14.50
2009,09,28,12,13,14.50
2009,09,28,12,14,14.60
2009,09,28,12,15,14.60
2009,09,28,12,16,14.60
2009,09,28,12,17,14.60
2009,09,28,12,18,14.60
2009,09,28,12,19,14.60
2009,09,28,12,20,14.70
2009,09,28,12,21,14.70
2009,09,28,12,22,14.70
2009,09,28,12,23,14.70
2009,09,28,12,24,14.70
2009,09,28,12,25,14.70
2009,09,28,12,26,14.70
2009,09,28,12,27,14.80
2009,09,28,12,28,14.80
2009,09,28,12,29,14.80
2009,09,28,12,30,14.80
2009,09,28,12,31,14.80
2009,09,28,12,32,14.80
2009,09,28,12,33,14.80
2009,09,28,12,34,14.80
2009,09,28,12,35,14.80
2009,09,28,12,36,14.90
2009,09,28,12,37,14.90
2009,09,28,12,38,14.90
2009,09,28,12,39,14.90
2009,09,28,12,40,14.90
2009,09,28,12,41,14.90
2009,09,28,12,42,15.00
2009,09,28,12,43,15.00
2009,09,28,12,44,15.00
2009,09,28,12,45,15.10
2009,09,28,12,46,15.10
2009,09,28,12,47,15.10
2009,09,28,12,48,15.10
2009,09,28,12,49,15.10
2009,09,28,12,50,15.10
2009,09,28,12,51,15.10
2009,09,28,12,52,15.10
2009,09,28,12,53,15.10
2009,09,28,12,54,15.10
2009,09,28,12,55,15.10
2009,09,28,12,56,15.10
2009,09,28,12,57,15.10
2009,09,28,12,58,15.10
2009,09,28,12,59,15.20
2009,09,28,13,00,15.20
2009,09,28,13,01,15.20
2009,09,28,13,02,15.20
2009,09,28,13,03,15.20
2009,09,28,13,04,15.20
2009,09,28,13,05,15.20
2009,09,28,13,06,15.20
2009,09,28,13,07,15.20
2009,09,28,13,08,15.20
2009,09,28,13,09,15.20
2009,09,28,13,10,15.20
2009,09,28,13,11,15.20
2009,09,28,13,12,15.10
2009,09,28,13,13,15.10
2009,09,28,13,14,15.10
2009,09,28,13,15,15.10
2009,09,28,13,16,15.00
2009,09,28,13,17,15.00
2009,09,28,13,18,15.00
2009,09,28,13,19,15.00
2009,09,28,13,20,15.00
2009,09,28,13,21,15.00
2009,09,28,13,22,15.00
2009,09,28,13,23,15.00
2009,09,28,13,24,15.00
2009,09,28,13,25,15.00
2009,09,28,13,26,15.00
2009,09,28,13,27,15.00
2009,09,28,13,28,15.00
2009,09,28,13,29,15.00
2009,09,28,13,30,15.00
2009,09,28,13,31,15.00
2009,09,28,13,32,14.90
2009,09,28,13,33,14.90
2009,09,28,13,34,14.90
2009,09,28,13,35,14.90
2009,09,28,13,36,14.90
2009,09,28,13,37,14.90
2009,09,28,13,38,14.90
2009,09,28,13,39,14.90
2009,09,28,13,40,14.90
2009,09,28,13,41,14.90
2009,09,28,13,42,14.90
2009,09,28,13,43,14.90
2009,09,28,13,44,14.80
2009,09,28,13,45,14.70
2009,09,28,13,46,14.50
2009,09,28,13,47,14.50
2009,09,28,13,48,14.40
2009,09,28,13,49,14.40
2009,09,28,13,50,14.40
2009,09,28,13,51,14.40
2009,09,28,13,52,14.50
2009,09,28,13,53,14.50
2009,09,28,13,54,14.50
2009,09,28,13,55,14.40
2009,09,28,13,56,14.30
2009,09,28,13,57,14.10
2009,09,28,13,58,14.00
2009,09,28,13,59,13.90
2009,09,28,14,00,13.80
2009,09,28,14,01,13.70
2009,09,28,14,02,13.60
2009,09,28,14,03,13.60
2009,09,28,14,04,13.60
2009,09,28,14,05,13.50
2009,09,28,14,06,13.60
2009,09,28,14,07,13.60
2009,09,28,14,08,13.70
2009,09,28,14,09,13.80
2009,09,28,14,10,13.90
2009,09,28,14,11,13.90
2009,09,28,14,12,13.90
2009,09,28,14,13,13.90
2009,09,28,14,14,13.90
2009,09,28,14,15,13.80
2009,09,28,14,16,13.70
2009,09,28,14,17,13.60
2009,09,28,14,18,13.50
2009,09,28,14,19,13.50
2009,09,28,14,20,13.40
2009,09,28,14,21,13.40
2009,09,28,14,22,13.40
2009,09,28,14,23,13.40
2009,09,28,14,24,13.40
2009,09,28,14,25,13.40
2009,09,28,14,26,13.40
2009,09,28,14,27,13.40
2009,09,28,14,28,13.40
2009,09,28,14,29,13.30
2009,09,28,14,30,13.30
2009,09,28,14,31,13.30
2009,09,28,14,32,13.30
2009,09,28,14,33,13.30
2009,09,28,14,34,13.30
2009,09,28,14,35,13.30
2009,09,28,14,36,13.30
2009,09,28,14,37,13.30
2009,09,28,14,38,13.30
2009,09,28,14,39,13.30
2009,09,28,14,40,13.30
2009,09,28,14,41,13.30
2009,09,28,14,42,13.20
2009,09,28,14,43,13.20
2009,09,28,14,44,13.10
2009,09,28,14,45,13.20
2009,09,28,14,46,13.20
2009,09,28,14,47,13.20
2009,09,28,14,48,13.20
2009,09,28,14,49,13.20
2009,09,28,14,50,13.10
2009,09,28,14,51,13.00
2009,09,28,14,52,13.00
2009,09,28,14,53,12.90
2009,09,28,14,54,12.90
2009,09,28,14,55,12.90
2009,09,28,14,56,12.90
2009,09,28,14,57,12.90
2009,09,28,14,58,12.90
2009,09,28,14,59,12.90
2009,09,28,15,00,12.90
2009,09,28,15,01,12.90
2009,09,28,15,02,12.90
2009,09,28,15,03,12.90
2009,09,28,15,04,12.90
2009,09,28,15,05,12.90
2009,09,28,15,06,12.80
2009,09,28,15,07,12.80
2009,09,28,15,08,12.80
2009,09,28,15,09,12.70
2009,09,28,15,10,12.60
2009,09,28,15,11,12.60
2009,09,28,15,12,12.50
2009,09,28,15,13,12.40
2009,09,28,15,14,12.40
2009,09,28,15,15,12.40
2009,09,28,15,16,12.30
2009,09,28,15,17,12.30
2009,09,28,15,18,12.30
2009,09,28,15,19,12.30
2009,09,28,15,20,12.30
2009,09,28,15,21,12.40
2009,09,28,15,22,12.40
2009,09,28,15,23,12.40
2009,09,28,15,24,12.40
2009,09,28,15,25,12.40
2009,09,28,15,26,12.40
2009,09,28,15,27,12.40
2009,09,28,15,28,12.40
2009,09,28,15,29,12.30
2009,09,28,15,30,12.30
2009,09,28,15,31,12.30
2009,09,28,15,32,12.30
2009,09,28,15,33,12.30
2009,09,28,15,34,12.20
2009,09,28,15,35,12.20
2009,09,28,15,36,12.20
2009,09,28,15,37,12.20
2009,09,28,15,38,12.10
2009,09,28,15,39,12.00
2009,09,28,15,40,12.00
2009,09,28,15,41,12.00
2009,09,28,15,42,12.00
2009,09,28,15,43,12.00
2009,09,28,15,44,12.00
2009,09,28,15,45,12.00
2009,09,28,15,46,11.90
2009,09,28,15,47,11.90
2009,09,28,15,48,11.90
2009,09,28,15,49,11.80
2009,09,28,15,50,11.80
2009,09,28,15,51,11.80
2009,09,28,15,52,11.80
2009,09,28,15,53,11.80
2009,09,28,15,54,11.80
2009,09,28,15,55,11.80
2009,09,28,15,56,11.70
2009,09,28,15,57,11.60
2009,09,28,15,58,11.60
2009,09,28,15,59,11.60
2009,09,28,16,00,11.60
2009,09,28,16,01,11.50
2009,09,28,16,02,11.40
2009,09,28,16,03,11.40
2009,09,28,16,04,11.40
2009,09,28,16,05,11.40
2009,09,28,16,06,11.40
2009,09,28,16,07,11.40
2009,09,28,16,08,11.40
2009,09,28,16,09,11.40
2009,09,28,16,10,11.40
2009,09,28,16,11,11.40
2009,09,28,16,12,11.30
2009,09,28,16,13,11.30
2009,09,28,16,14,11.30
2009,09,28,16,15,11.30
2009,09,28,16,16,11.20
2009,09,28,16,17,11.20
2009,09,28,16,18,11.20
2009,09,28,16,19,11.20
2009,09,28,16,20,11.20
2009,09,28,16,21,11.20
2009,09,28,16,22,11.20
2009,09,28,16,23,11.20
2009,09,28,16,24,11.20
2009,09,28,16,25,11.20
2009,09,28,16,26,11.20
2009,09,28,16,27,11.20
2009,09,28,16,28,11.20
2009,09,28,16,29,11.10
2009,09,28,16,30,11.10
2009,09,28,16,31,11.10
2009,09,28,16,32,11.10
2009,09,28,16,33,11.10
2009,09,28,16,34,11.10
2009,09,28,16,35,11.10
2009,09,28,16,36,11.10
2009,09,28,16,37,11.10
2009,09,28,16,38,11.10
2009,09,28,16,39,11.10
2009,09,28,16,40,11.10
2009,09,28,16,41,11.10
2009,09,28,16,42,11.00
2009,09,28,16,43,10.90
2009,09,28,16,44,10.90
2009,09,28,16,45,10.90
2009,09,28,16,46,10.90
2009,09,28,16,47,10.90
2009,09,28,16,48,10.90
2009,09,28,16,49,10.90
2009,09,28,16,50,10.90
2009,09,28,16,51,10.90
2009,09,28,16,52,10.90
2009,09,28,16,53,10.90
2009,09,28,16,54,10.90
2009,09,28,16,55,10.90
2009,09,28,16,56,10.90
2009,09,28,16,57,10.90
2009,09,28,16,58,10.90
2009,09,28,16,59,10.90
2009,09,28,17,00,10.90
2009,09,28,17,01,10.90
2009,09,28,17,02,10.80
2009,09,28,17,03,10.80
2009,09,28,17,04,10.80
2009,09,28,17,05,10.80
2009,09,28,17,06,10.70
2009,09,28,17,07,10.70
2009,09,28,17,08,10.70
2009,09,28,17,09,10.70
2009,09,28,17,10,10.70
2009,09,28,17,11,10.70
2009,09,28,17,12,10.60
2009,09,28,17,13,10.60
2009,09,28,17,14,10.60
2009,09,28,17,15,10.60
2009,09,28,17,16,10.60
2009,09,28,17,17,10.60
2009,09,28,17,18,10.60
2009,09,28,17,19,10.60
2009,09,28,17,20,10.60
2009,09,28,17,21,10.60
2009,09,28,17,22,10.60
2009,09,28,17,23,10.60
2009,09,28,17,24,10.60
2009,09,28,17,25,10.60
2009,09,28,17,26,10.60
2009,09,28,17,27,10.60
2009,09,28,17,28,10.60
2009,09,28,17,29,10.60
2009,09,28,17,30,10.50
2009,09,28,17,31,10.40
2009,09,28,17,32,10.40